Overview Statistics Trail Chart Weather Telemetry Raw packets
 

This is the latest recevied weather packets stored in our database for station/object KC9DRE. If no packets are shown the sender has not sent any weather packets the latest 10 day(s).

<< 42 43 44 45 46 47 48 >>
Time Temp. Humidity Pressure Rain* Wind** Luminosity Snow
1777640986 11.11° C 75% 1014.1 hPa 0 mm - 63 W/m² -
1777640683 11.11° C 73% 1014.2 hPa 0 mm - 59 W/m² -
1777640379 11.67° C 73% 1014.1 hPa 0 mm - 70 W/m² -
1777640076 11.67° C 71% 1014 hPa 0 mm - 79 W/m² -
1777639772 11.67° C 69% 1014.2 hPa 0 mm - 127 W/m² -
1777639470 11.67° C 69% 1013.9 hPa 0 mm - 145 W/m² -
1777639167 11.11° C 70% 1014 hPa 0 mm - 160 W/m² -
1777638863 11.11° C 69% 1013.9 hPa 0 mm - 163 W/m² -
1777638559 10.56° C 69% 1013.8 hPa 0 mm - 121 W/m² -
1777638255 10.56° C 70% 1013.7 hPa 0 mm - 108 W/m² -
1777637951 10° C 70% 1014 hPa 0 mm - 104 W/m² -
1777637655 10° C 70% 1013.8 hPa 0 mm - 61 W/m² -
1777637345 10.56° C 68% 1013.8 hPa 0 mm - 48 W/m² -
1777637042 10.56° C 68% 1013.8 hPa 0 mm - 42 W/m² -
1777636738 10° C 70% 1013.6 hPa 0 mm - 58 W/m² -
1777636434 9.44° C 71% 1013.8 hPa 0 mm - 94 W/m² -
1777636130 9.44° C 72% 1013.7 hPa 0 mm - 69 W/m² -
1777635825 8.89° C 71% 1013.6 hPa 0 mm - 51 W/m² -
1777635522 8.89° C 70% 1013.6 hPa 0 mm - 40 W/m² -
1777635218 8.89° C 71% 1013.7 hPa 0 mm - 39 W/m² -
1777634915 8.89° C 71% 1013.5 hPa 0 mm - 33 W/m² -
1777634612 8.89° C 67% 1012.9 hPa 0 mm - 33 W/m² -
1777634310 8.89° C 68% 1012.9 hPa 0 mm - 29 W/m² -
1777634006 8.33° C 69% 1012.9 hPa 0 mm - 18 W/m² -
1777633702 8.89° C 69% 1013 hPa 0 mm - 15 W/m² -

* Rain latest hour (hover to see other rain measurements)
** Current wind speed in m/s (hover to see current wind gust speed)